Погода в Игарке

Погода в Игарке : погода сейчас, прогноз погоды и архив. Всё, что Вы хотите узнать о погоде в Игарке!

Поиск расширенной информации на нашем сайте:

Другие новости

Новости СМИ2

Главная страница сайта

Новости сайта

02.10.2013

Напоминаем, что на нашем новом сайте вы можете получить высокодетализированные прогнозы погоды по пунктам России, СНГ и мира (включающие важные для авиации метеовеличины, такие как направление и скорость ветра, видимость, явления погоды, количество и форма облачности, нижняя и верхняя граница облачности), а также ознакомиться с разнообразными материалами по авиационной метеорологии и подборкой полезных ссылок на эту тему.

Сайт Метеоцентр.Азия посвящён разработке технологий оптимизации авиаметеорологического обслуживания, включая проектирование и перспективное создание нескольких автоматизированных авиаметеорологических систем:
- система выпуска высокодетальных прогностических карт явлений погоды для нижнего воздушного пространства по России и ближнему зарубежью;
- система верификации прогнозов TAF (выпускаемых синоптиками официальных АМСГ РФ и ближнего зарубежья) и AUTOTAF (выпускаемых сайтом Метеоцентр.Азия) - выявление ошибок, онлайн-сопоставление с фактической погодой METAR, автоматическое внесение коррективов в прогнозы при резком отклонении фактической погоды от прогноза, подсчёт оправдываемости прогнозов по элементам и в целом;
- система обработки, анализа и отображения авиаметеорологической информации для применения провайдерами метеорологической информации.

Рекомендуем: Доставка канапе и фуршетных блюд по Москве catering.su.

Погода в Игарке - сегодня

Время (UTC), дата Ветер
(°,м/с) 
Видим.   Явления Облачность Т
(°С)
Тd
(°С)
f(%) Тe
(°С)
Pmin
(гПа)
dP
(гПа)
Po
(мм)
O2
(г/м3)
Тmin Tmax R s Состояние
почвы
21 25.05.17 300 (СЗ) 5{11}  20000 м    9/8 270 м средняя 
[Frnb|As op]
-3.8 -5 91 -7  1002.4  1.7  749  307           
00 26.05.17 250 (З) 5{11}  10 км  слаб. снег  9/8 210 м средняя 
[Frnb|As op]
-4.4 -6 89 -8  1003.9  1.5  750  308  -5    0.7  50  равномерный
сухой снег
100% 
03 26.05.17 250 (З) 20000 м  {снег}  9/8 660 м средняя 
[Sc|As op]
-4.3 -6.6 84 -7  1006.5  2.6  752  309           
06 26.05.17 260 (З) 20000 м  {снег}  9/8 800 м средняя 
[Sc|Ac trans]
-2.6 -8.2 65 -5  1008.3  1.9  754  307           
09 26.05.17 250 (З) 20000 м    9/9 600 м 
[Sc]
-1.2 -5.9 70 -3  1010  1.7  755  306           
12 26.05.17 240 (ЮЗ) 20000 м    9/9 750 м кучево-дожд. 
[Cb cap]
+0.7 -4.6 68 1011.4  1.4  756  304    +1.2  0.0     
00 27.05.17 300 (СЗ) 20000 м  {ливн. осадки}  8/6 630 м кучево-дожд., средняя 
[Cb cap|Ac cuf]
-2.4 -5.3 80 -4  1016.1  1.6  759  309  -2.8    0.4  50  равномерный
сухой снег
100% 
03 27.05.17 280 (З) 20000 м    9/6 700 м средняя 
[Sc diur, vesp|Ac cuf]
-1.2 -5.2 74 -3  1017.6  1.5  761  308           
06 27.05.17 170 (Ю) 20000 м    9/6 900 м средняя 
[Sc|Ac trans]
+0.3 -5.5 65 +1  1018.1  0.5  761  307           
09 27.05.17 130 (ЮВ) 20000 м    6/6 1200 м 
[Sc]
+2.1 -5.4 58 1017.4  -0.7  760  305           
12 27.05.17 140 (ЮВ) 20000 м    6/3 1500 м верхняя 
[Sc|Ci fib]
+3.9 -6.5 47 +3  1017.1  -0.3  760  303    +4.2       
15 27.05.17 080 (В) 20000 м    3/1 1500 м верхняя 
[Sc|Ci fib]
+3.6 -6.5 48 +4  1017  -0.1  760  303           
18 27.05.17 040 (СВ) 10 км    3/0 верхняя 
[Ci fib]
-0.9 -5.8 69 -2  1016.6  -0.4  760  308           
21 27.05.17 090 (В) 20000 м    3/0 верхняя 
[Ci fib]
-1.4 -6.5 68 -2  1016.8  0.2  760  309           
00 28.05.17 100 (В) 20000 м    1/0 верхняя 
[Ci fib]
+1.5 -5.9 58 1016.6  -0.2  760  305  -1.7      47  равномерный
мокрый или
старый снег
100% 
03 28.05.17 120 (ЮВ) 20000 м    3/0 верхняя 
[Ci fib]
+6.1 -3.5 50 +5  1015.8  -0.8  759  300           
06 28.05.17 110 (В) 20000 м    6/0 верхняя 
[Ci fib]
+7.3 -3.2 47 +6  1013.9  -1.8  758  298           
09 28.05.17 130 (ЮВ) 20000 м    8/0 средняя, верхняя 
[Ac trans|Ci fib]
+8.3 -1.7 49 +7  1012.6  -1.3  757  296           
12 28.05.17 110 (В) 20000 м    9/0 средняя, верхняя 
[Ac trans|Ci fib]
+8.2 -1.8 49 +7  1011.4  -1.2  756  296    +10       
15 28.05.17 090 (В) 20000 м    9/6 1200 м средняя 
[Sc|Ac trans]
+5.7 -1.6 59 +5  1010.8  -0.7  755  298           
18 28.05.17 120 (ЮВ) 10 км    9/5 1140 м средняя 
[Sc|Ac As]
+4.9 -1.3 64 +4  1009.5  -1  755  299           
00 29.05.17 100 (В) 20000 м  {дождь}  9/6 1020 м средняя 
[Sc|Ac As]
+5.4 -1.7 60 +3  1007.3  -1.7  753  298  +4.2    0.0  45  равномерный
мокрый или
старый снег
100% 
03 29.05.17 120 (ЮВ) 6{10}  20000 м    8/3 1000 м средняя, верхняя 
[Sc|Ac trans|Ci fib]
+9 +0 53 +7  1005.8  -1.5  752  293           
09 29.05.17 140 (ЮВ) 6{12}  20000 м    8/3 1000 м средняя, верхняя 
[Sc|Ac trans|Ci fib]
+11.4 +1.5 51 +10  1003.3  -1.6  750  290           
12 29.05.17 120 (ЮВ) 4{12}  20000 м    9/6 1260 м средняя 
[Sc|Ac trans]
+10.5 +1.4 53 +10  1002.8  -0.5  750  291    +11.8       
Время (UTC), дата Ветер
(°,м/с) 
Видим.   Явления Облачность Т
(°С)
Тd
(°С)
f(%) Тe
(°С)
Pmin
(гПа)
dP
(гПа)
Po
(мм)
O2
(г/м3)
Тmin Tmax R s Состояние
почвы

Для получения пояснительной информации подведите курсор к названию столбца.

ПОГОДА в Игарке - архив

Всё, что Вы хотите узнать о погоде в Игарке - удобно и подробно!

Выберите нужную дату (начиная с 1 января 2015* года) и нажмите кнопку "Найти".
Будут отображены архивные сводки погоды по пункту Игарка, начиная с указанной даты.


Отображать данные в формате CSV (для использования в таблицах Excel)


Внимание! Наш архив погоды предназначен исключительно для личного некоммерческого использования в познавательных целях. Если Вам необходимы официальные справки о состоянии погоды (для производственных, юридических, коммерческих и т.п. целей), обращайтесь в органы Росгидромета.

*Примечание: данная дата относится к архиву по метеостанциям СССР (Россия, СНГ, Балтия).
Архив по метеостанциям Зарубежной Европы и Азии (кроме Китая) хранится 10 дней, по другим регионам земного шара (Китай, Африка, Америка, Австралия, Океания) - 1 день.

Игарка - район местоположения метеостанции


Название, широта, долгота, высота метеостанции:
Игарка 67.5°ш. 86.4°д. 25 м над ур. моря [Российская Федерация]

Дополнительная информация

В oтличие oт бoльшинства пoгoдных сайтoв мы публикуем пoдрoбную метеoинфoрмацию в детальнoм прoфессиoнальнoм фoрмате.

Характеристики температуры и влажнoсти вoздуха измеряются на высoте 2 м в тени вдали oт зданий и деревьев.
Скoрoсть ветра измеряется на высoте 10 м (на урoвне рoста челoвека скoрoсть ветра ниже в 1.5-2 раза). Если метеoстанция нахoдится в гoрoде или в лесу, тo скoрoсть ветра занижена на 2-4 м/с пo сравнению с oткрытым местoм. Скoрoсть ветра над акватoриями крупных рек и oзёр, а также на вершинах хoлмoв на 2-5 м/с выше, чем в oбычных услoвиях.
Атмoсфернoе давление в разных тoчках местнoсти мoжет значительнo oтличаться oт давления на метеoстанции, в зависимoсти oт услoвий рельефа (при пoдъёме на 10 м давление пoнижается примернo на 1 мм рт.ст.).